Change the Weather History Date:

Friday, August 23, 2013

  Actual Average Record
Temperature  
Mean Temperature 79 °F -  
Max Temperature 90 °F 86 °F - ()
Min Temperature 68 °F 67 °F - ()
Cooling Degree Days 14    
Growing Degree Days 29 (Base 50)    
Moisture  
Dew Point 69 °F    
Average Humidity 71    
Maximum Humidity 100    
Minimum Humidity 36    
Precipitation  
Precipitation 0.00 in 0.00 in - ()
Sea Level Pressure  
Sea Level Pressure 29.83 in    
Wind  
Wind Speed 4 mph ()    
Max Wind Speed 10 mph    
Max Gust Speed -    
Visibility 4.7 miles    
Events      
T = Trace of Precipitation, MM = Missing Value Source: Averaged Metar Reports

Daily Weather History Graph

Daily Weather History Graph

Search for Another Location

Airport or City:

Trip Planner

Search our weather history database for the weather conditions in past years. The results will help you decide how hot, cold, wet, or windy it might be!

Date:

Astronomy

Aug. 23, 2013 Rise Set
Actual Time 5:15 AM EET 6:18 PM EET
Civil Twilight 4:50 AM EET 6:43 PM EET
Nautical Twilight 4:20 AM EET 7:13 PM EET
Astronomical Twilight 3:50 AM EET 7:43 PM EET
Moon 7:41 PM EET (8/23) 7:33 AM EET (8/23)
Length of Visible Light 13h 53m
Length of Day
13h 03m
Waning Gibbous, 93% of the Moon is Illuminated
Aug 23
Waning Gibbous
Aug 28
Last Quarter
Sep 5
New
Sep 12
First Quarter
Sep 19
Full

Hourly Weather History & Observations

Time (EET) Temp. Heat Index Dew Point Humidity Pressure Visibility Wind Dir Wind Speed Gust Speed Precip Events Conditions
12:00 AM 73.4 °F - 71.6 °F 94% 29.83 in 3.7 mi South 3.5 mph - N/A   Unknown
1:00 AM 71.6 °F - 71.6 °F 100% 29.80 in 3.7 mi South 2.3 mph - N/A   Unknown
2:00 AM 71.6 °F - 71.6 °F 100% 29.80 in 3.7 mi South 2.3 mph - N/A   Unknown
3:00 AM 69.8 °F - 69.8 °F 100% 29.80 in 3.7 mi South 4.6 mph - N/A   Unknown
4:00 AM 69.8 °F - 69.8 °F 100% 29.83 in 3.7 mi South 4.6 mph - N/A   Unknown
5:00 AM 68.0 °F - 68.0 °F 100% 29.80 in 3.7 mi South 3.5 mph - N/A   Unknown
6:00 AM 69.8 °F - 69.8 °F 100% 29.83 in 3.7 mi South 3.5 mph - N/A   Unknown
7:00 AM 75.2 °F - 75.2 °F 100% 29.83 in 3.7 mi South 2.3 mph - N/A   Unknown
8:00 AM 82 °F - 74 °F 71% 29.86 in 6 mi West 2.3 mph - -   Scattered Clouds
8:00 AM 80.6 °F 85.4 °F 73.4 °F 79% 29.83 in 6.2 mi West 2.3 mph - N/A   Partly Cloudy
9:00 AM 84.2 °F 88.4 °F 69.8 °F 62% 29.86 in 6.2 mi WNW 3.5 mph - N/A   Partly Cloudy
10:00 AM 87.8 °F 90.4 °F 66.2 °F 49% 29.86 in - NW 3.5 mph - N/A   Clear
11:00 AM 89.6 °F 88.9 °F 59.0 °F 36% 29.83 in - North 5.8 mph - N/A   Clear
12:00 PM 89.6 °F 91.1 °F 64.4 °F 43% 29.83 in - North 5.8 mph - N/A   Clear
1:00 PM 89.6 °F 92.2 °F 66.2 °F 46% 29.83 in - NNW 8.1 mph - N/A   Clear
2:00 PM 89 °F - 66 °F 36% 29.83 in 6 mi North 8.1 mph - -  
2:00 PM 89.6 °F 92.2 °F 66.2 °F 46% 29.83 in - North 8.1 mph - N/A   Clear
3:00 PM 87.8 °F 91.4 °F 68.0 °F 52% 29.83 in - North 10.4 mph - N/A   Clear
4:00 PM 87.8 °F 89.4 °F 64.4 °F 46% 29.83 in - North 9.2 mph - N/A   Clear
5:00 PM 86.0 °F 89.4 °F 68.0 °F 55% 29.80 in - North 8.1 mph - N/A   Clear
6:00 PM 82.4 °F 86.3 °F 69.8 °F 66% 29.83 in - NNW 5.8 mph - N/A   Clear
7:00 PM 80.6 °F 83.2 °F 68.0 °F 65% 29.83 in - NNW 3.5 mph - N/A   Clear
8:00 PM 80 °F - 70 °F 64% 29.86 in 6 mi NW 2.3 mph - -  
8:00 PM 80.6 °F 83.9 °F 69.8 °F 70% 29.86 in - NW 2.3 mph - N/A   Clear
9:00 PM 78.8 °F - 69.8 °F 74% 29.86 in - WNW 1.2 mph - N/A   Clear
10:00 PM 77.0 °F - 69.8 °F 78% 29.86 in - NW 1.2 mph - N/A   Clear
11:00 PM 77.0 °F - 69.8 °F 78% 29.86 in 6.2 mi South 2.3 mph - N/A   Scattered Clouds